Wetbulb
53.90 54.82 55.05 55.14 55.12 54.73 55.30 54.77 54.31 53.50 53.81 52.44 51.41 51.31 51.07 51.91 52.59 53.71 53.72 53.49 53.52 53.12 52.10 51.60 50.03 49.83 49.24 48.75 48.64 48.12 47.80 48.62 48.85 47.90 48.62 48.64 49.63 49.99 51.36 52.30 50.97 50.33 51.23
52.81 54.05 53.93 53.49 52.94 52.14 52.73 53.19 53.27 53.04 52.78 51.98 51.54 51.90 51.39 52.07 52.48 53.49 52.81 53.51 52.63 52.14 52.15 50.11 49.69 49.08 48.61 47.58 46.88 46.40 45.86 46.34 47.08 45.25 45.71 43.35 45.37 46.76 48.69 48.78 51.09 49.95 51.65
51.29 52.53 52.86 51.13 51.17 51.03 51.22 52.37 52.57 52.74 52.33 51.85 51.69 51.51 51.62 50.73 50.34 50.62 50.55 51.17 51.09 50.27 48.71 48.06 47.58 46.84 47.66 46.22 45.52 45.88 45.02 44.01 44.78 44.15 42.70 40.15 40.15 41.34 45.53 46.37 46.66 46.54 44.39
51.70 52.51 51.58 50.84 51.18 51.07 51.74 52.08 52.50 52.00 52.83 52.01 51.05 49.92 48.42 47.39 48.59 48.59 48.90 48.96 48.78 48.31 48.32 47.41 46.18 45.96 46.74 45.46 46.25 45.21 43.02 42.14 39.87 41.45 43.41 41.60 42.28 37.22 36.53 42.72 42.76 41.90 41.95
49.55 50.06 50.63 51.62 51.72 51.76 51.15 51.36 51.84 52.12 52.16 52.06 51.20 50.13 48.20 48.94 48.98 48.24 47.29 46.54 46.87 46.61 46.24 46.28 45.51 45.01 45.19 45.49 43.54 42.70 44.31 43.86 42.30 41.30 38.38 37.84 37.82 37.93 35.21 34.02 36.04 37.68 38.64
49.13 50.09 51.05 52.03 51.35 51.35 50.89 50.91 51.20 51.82 51.80 51.15 50.61 49.26 48.16 48.28 47.24 46.02 44.54 44.33 44.15 44.26 44.54 44.82 44.14 44.98 44.76 44.28 45.66 44.72 43.67 43.04 42.21 39.19 37.28 36.87 36.36 34.97 34.42 33.41 32.08 33.23 35.57
47.94 48.11 48.78 49.36 50.35 49.23 50.07 50.78 51.02 50.97 51.15 50.52 49.39 48.63 48.22 47.84 47.01 46.15 44.74 43.00 42.07 42.08 41.96 43.98 44.14 44.61 44.87 44.93 44.31 43.69 41.53 41.77 39.55 37.15 36.64 36.66 36.50 37.55 36.18 35.29 33.38 32.88 33.68
48.68 47.84 48.83 48.92 49.32 49.83 49.55 49.71 50.31 50.19 49.82 49.39 48.54 47.42 46.61 45.97 45.10 43.84 42.60 41.77 40.88 41.32 42.24 43.17 42.75 41.77 41.93 42.01 42.36 42.21 42.55 40.88 39.33 38.42 39.59 40.72 37.82 40.06 37.26 34.87 32.47 31.05 30.29
48.16 48.48 49.11 48.59 48.29 48.62 49.34 48.84 47.76 48.21 48.25 47.32 46.23 45.55 45.51 44.78 42.89 41.90 41.30 41.19 41.21 43.16 41.59 41.33 41.13 40.97 40.95 41.28 43.05 41.26 39.14 38.96 38.15 38.02 38.47 40.13 40.00 41.04 40.28 39.28 38.00 35.03 29.36
47.66 47.27 47.51 47.98 48.29 48.27 48.47 47.76 47.17 46.60 45.34 44.54 44.06 43.87 42.91 43.02 42.32 41.65 41.29 41.53 41.38 41.52 40.85 41.08 41.30 41.16 41.19 40.86 39.95 39.31 38.79 38.08 36.91 37.93 37.17 38.32 39.44 38.71 39.29 39.11 39.04 38.37 34.82
45.93 46.60 47.28 47.80 47.80 48.37 47.62 46.36 45.64 44.93 43.36 43.15 42.81 41.83 42.00 42.04 41.40 40.53 40.10 40.88 40.88 41.25 41.11 41.18 41.13 40.64 39.89 39.48 38.61 37.90 38.28 37.94 35.88 35.50 35.41 35.37 36.44 36.84 37.42 37.63 37.42 36.30 35.60
45.73 46.17 46.62 46.34 45.49 45.57 45.52 45.08 44.45 43.75 42.67 42.57 41.62 41.19 41.95 40.90 39.78 39.43 39.54 40.08 39.80 40.90 40.06 38.94 37.61 39.02 39.23 38.59 37.80 36.90 35.38 32.34 30.99 31.06 30.73 31.13 33.73 31.93 32.61 32.80 32.54 32.76 32.67
45.79 45.01 44.91 44.38 44.80 44.87 44.89 43.36 43.40 42.24 42.32 41.51 40.58 40.19 40.29 39.45 38.29 38.85 39.79 40.00 39.14 38.46 37.28 36.20 34.90 35.05 35.05 34.46 33.69 32.96 31.66 30.63 30.23 30.08 29.48 29.67 29.82 29.14 30.03 30.66 30.80 30.46 32.32
44.13 44.01 43.28 43.13 43.53 44.61 42.92 42.42 42.67 42.28 42.29 41.83 40.20 39.49 39.33 39.14 38.22 38.38 38.59 38.58 38.20 36.81 34.94 34.63 34.99 35.24 34.72 33.79 32.86 32.22 30.10 29.16 29.51 29.97 29.26 29.15 29.12 28.91 28.99 30.39 29.61 29.50 27.35
43.61 43.13 42.15 42.08 42.82 41.80 41.58 42.16 42.62 43.03 42.29 40.76 41.21 39.55 40.34 39.35 39.26 39.05 38.26 38.17 37.40 35.84 34.70 34.31 33.91 33.66 33.64 32.19 29.28 28.56 27.54 27.14 27.50 28.20 28.90 29.17 30.64 33.43 33.42 31.37 29.55 27.10 25.49
43.08 42.85 42.85 43.29 43.08 41.71 41.21 41.50 41.20 41.92 42.33 40.96 40.45 41.19 40.05 40.32 39.21 37.97 37.67 37.58 34.68 33.59 33.29 32.62 32.67 31.85 33.36 31.97 31.48 29.25 26.40 27.10 26.81 25.70 26.45 27.52 29.88 30.23 30.99 31.84 31.97 30.81 28.02
41.65 41.69 42.56 43.16 41.72 40.54 40.94 39.19 39.66 41.14 41.13 40.83 41.32 40.05 40.61 39.52 40.12 39.70 38.55 36.08 32.33 31.79 31.57 31.67 32.63 31.08 29.25 32.04 31.44 30.94 27.35 26.17 25.26 24.48 25.18 25.85 27.87 27.79 27.53 29.02 30.15 30.16 31.82
41.77 42.11 41.80 41.04 40.68 40.33 39.61 38.96 39.08 38.58 38.86 39.01 39.02 40.02 39.65 38.90 39.08 39.41 37.58 33.69 32.84 30.65 30.23 31.12 31.49 29.23 31.21 33.20 33.47 31.92 26.85 26.51 26.27 25.26 25.12 24.80 25.11 26.29 27.41 26.80 26.63 27.01 27.95
41.58 41.10 39.94 39.68 39.01 38.45 38.70 37.79 36.91 36.57 36.61 37.68 38.24 38.84 38.79 39.12 38.93 35.69 35.07 34.49 33.05 31.24 30.68 31.62 29.83 28.71 28.59 32.53 32.63 31.09 26.31 25.97 25.52 26.76 26.75 25.91 25.22 27.78 29.92 27.68 26.15 25.71 27.00
39.53 37.88 37.44 37.51 36.82 36.86 37.10 35.96 34.76 34.67 35.10 36.98 37.18 38.08 38.77 37.58 35.87 34.98 35.17 34.88 32.79 32.13 31.48 29.76 29.23 30.70 27.35 31.01 31.88 29.07 24.23 20.99 24.26 25.02 25.55 26.76 26.21 28.18 28.51 28.09 24.70 23.04 23.79
37.21 37.14 36.21 34.91 35.18 36.63 36.38 34.88 33.70 33.38 35.82 36.94 36.60 36.77 37.43 37.07 37.61 35.52 33.93 31.69 30.76 29.48 26.43 26.01 26.75 27.48 28.53 27.00 29.61 28.68 25.00 23.45 23.58 22.82 22.88 24.35 26.86 27.12 28.30 28.37 26.33 25.26 26.13
36.09 36.62 34.71 34.65 35.41 36.64 35.64 34.26 33.02 35.08 36.36 35.70 35.20 34.53 34.78 36.44 36.64 34.77 32.80 32.97 28.31 26.41 24.43 16.59 19.18 23.34 24.18 27.52 26.73 26.16 25.48 24.84 21.02 21.96 23.33 24.67 26.93 28.46 27.61 27.51 28.89 28.93 27.82
35.36 36.14 34.36 34.81 35.70 35.93 35.84 34.60 34.75 35.22 34.67 33.44 32.61 32.49 33.26 34.06 34.55 33.90 33.38 27.50 25.96 21.97 22.06 23.24 17.34 20.03 23.00 21.31 24.99 24.35 24.79 24.19 22.10 23.58 24.65 26.16 26.84 26.38 26.43 27.59 27.29 27.71 26.82
34.59 34.97 34.44 33.90 34.03 35.29 35.84 34.38 34.94 34.74 33.28 31.43 31.10 31.35 30.78 31.56 31.95 31.67 28.86 26.00 21.47 19.89 23.72 20.73 18.40 16.89 20.18 18.29 19.65 21.85 19.07 22.72 23.62 23.56 23.23 24.84 24.42 24.63 24.61 24.83 24.99 25.44 24.75
33.88 34.34 33.78 34.05 33.83 34.91 34.85 34.70 34.44 33.94 32.03 30.58 30.07 28.55 28.09 28.38 28.73 28.71 26.32 25.64 23.95 22.80 19.99 18.76 18.56 9.05 7.79 17.17 24.17 23.56 22.12 22.05 24.21 22.24 22.31 20.91 20.36 20.76 21.98 22.01 22.99 23.03 23.89
34.05 34.25 34.42 34.63 34.03 33.91 33.87 34.23 33.65 32.51 30.33 28.87 27.85 26.05 25.28 24.26 26.65 26.42 26.73 30.24 28.56 29.56 29.25 27.63 18.88 14.88 21.84 24.63 25.68 25.12 24.87 24.76 24.46 20.32 18.59 17.24 18.14 18.56 19.19 18.98 20.03 21.28 22.41
MSLP
1016.96 1016.95 1017.22 1017.07 1017.24 1017.66 1017.91 1018.26 1018.33 1018.61 1018.76 1019.06 1019.50 1019.80 1020.18 1019.96 1019.86 1019.88 1019.82 1019.85 1020.16 1020.33 1020.29 1020.47 1020.52 1020.42 1020.60 1020.76 1020.79 1020.64 1020.55 1020.33 1019.92 1019.52 1018.75 1018.08 1017.61 1017.26 1017.00 1016.55 1016.41 1016.16 1015.71
1017.51 1017.95 1018.31 1018.39 1018.63 1018.81 1019.07 1019.14 1019.26 1019.57 1019.88 1019.88 1020.06 1020.09 1020.26 1020.04 1020.24 1020.40 1020.59 1020.63 1020.64 1020.64 1020.72 1020.94 1020.84 1020.64 1020.81 1020.89 1020.88 1020.81 1020.75 1020.60 1020.50 1020.48 1019.76 1018.61 1017.82 1017.42 1017.25 1017.08 1017.03 1016.89 1016.71
1018.33 1018.81 1019.24 1019.62 1019.64 1019.82 1019.97 1019.92 1019.92 1020.20 1020.34 1020.44 1020.44 1020.46 1020.48 1020.70 1020.97 1021.10 1021.16 1021.19 1021.25 1021.22 1021.19 1021.25 1021.20 1021.12 1021.02 1021.03 1020.92 1021.01 1021.13 1021.40 1021.38 1021.38 1021.27 1020.58 1019.77 1019.39 1017.90 1017.59 1017.78 1017.60 1017.50
1018.80 1019.29 1019.92 1020.45 1020.57 1020.59 1020.42 1020.29 1020.35 1020.39 1020.53 1020.67 1020.92 1021.33 1021.77 1021.98 1021.96 1021.78 1021.63 1021.56 1021.47 1021.45 1021.28 1021.32 1021.32 1021.20 1021.07 1021.08 1021.00 1021.11 1021.21 1021.24 1021.62 1021.57 1021.66 1021.97 1021.62 1020.65 1018.95 1018.30 1018.29 1018.40 1018.21
1019.17 1019.78 1020.15 1020.56 1020.66 1020.76 1020.74 1020.50 1020.68 1020.89 1020.89 1020.90 1021.03 1021.36 1021.65 1021.64 1021.70 1021.92 1022.16 1022.27 1022.10 1021.90 1021.76 1021.62 1021.49 1021.37 1021.22 1021.18 1021.27 1021.18 1021.13 1021.08 1021.21 1021.69 1021.81 1021.86 1021.72 1021.30 1021.14 1019.47 1019.43 1019.45 1018.88
1019.41 1019.74 1020.22 1020.58 1020.73 1020.72 1020.70 1020.75 1020.89 1020.94 1021.12 1021.33 1021.44 1021.66 1022.00 1022.10 1022.31 1022.45 1022.59 1022.53 1022.39 1022.24 1022.03 1021.89 1021.88 1021.67 1021.50 1021.43 1021.46 1021.43 1021.39 1021.38 1021.44 1021.78 1022.03 1022.08 1022.27 1022.14 1021.82 1021.04 1019.90 1019.78 1019.18
1019.74 1020.11 1020.33 1020.66 1020.90 1020.79 1020.92 1021.03 1020.98 1021.07 1021.22 1021.45 1021.72 1022.01 1022.25 1022.47 1022.68 1022.78 1022.74 1022.77 1022.59 1022.44 1022.32 1022.11 1022.02 1021.97 1021.82 1021.61 1021.44 1021.62 1021.88 1021.58 1021.57 1021.93 1021.83 1021.85 1021.83 1021.64 1021.76 1021.56 1020.76 1020.11 1019.34
1019.62 1019.89 1020.00 1020.31 1020.73 1020.88 1020.95 1020.97 1021.11 1021.32 1021.59 1021.72 1021.91 1022.10 1022.16 1022.38 1022.63 1022.74 1022.68 1022.60 1022.52 1022.55 1022.38 1022.18 1022.14 1022.17 1022.06 1021.95 1021.87 1021.82 1022.03 1021.71 1021.52 1021.41 1021.33 1021.28 1021.26 1021.21 1020.98 1020.77 1020.66 1019.97 1019.58
1019.54 1019.96 1020.18 1020.51 1020.83 1020.95 1021.12 1021.25 1021.29 1021.41 1021.64 1021.97 1022.02 1022.24 1022.40 1022.39 1022.48 1022.50 1022.49 1022.72 1022.90 1022.59 1022.61 1022.33 1022.37 1022.28 1022.17 1021.88 1021.52 1022.04 1021.96 1021.73 1021.50 1021.21 1021.02 1020.92 1020.76 1020.60 1020.51 1020.40 1020.22 1020.08 1019.63
1020.02 1020.42 1020.62 1020.75 1020.79 1020.88 1021.08 1021.16 1021.25 1021.62 1021.94 1022.09 1022.16 1022.27 1022.29 1022.36 1022.57 1022.66 1022.86 1022.97 1023.01 1022.77 1022.65 1022.38 1022.28 1022.20 1022.22 1022.12 1021.95 1021.76 1021.60 1021.39 1021.17 1021.04 1020.93 1020.67 1020.47 1020.51 1020.36 1020.24 1020.01 1019.77 1019.56
1020.47 1020.87 1021.00 1021.14 1021.12 1021.19 1021.41 1021.50 1021.68 1021.86 1021.94 1021.84 1021.93 1022.08 1022.39 1022.50 1022.62 1022.75 1022.80 1022.73 1022.69 1022.52 1022.54 1022.26 1022.11 1021.97 1021.84 1021.79 1021.79 1021.60 1021.29 1021.07 1020.91 1020.87 1020.85 1020.63 1020.26 1019.85 1019.48 1019.21 1018.97 1018.79 1018.63
1020.68 1020.86 1021.23 1021.64 1021.90 1021.80 1021.51 1021.70 1021.83 1021.85 1021.81 1021.74 1021.88 1021.93 1022.10 1022.13 1022.09 1022.14 1022.18 1021.95 1022.36 1022.21 1022.21 1022.05 1021.95 1021.81 1021.67 1021.42 1021.33 1021.20 1021.14 1021.31 1021.19 1021.09 1020.90 1020.60 1020.32 1020.09 1019.69 1019.21 1018.86 1018.55 1018.25
1021.40 1021.98 1022.25 1022.44 1022.35 1022.10 1021.85 1021.76 1021.73 1021.80 1021.62 1021.50 1021.53 1021.56 1021.52 1021.60 1021.48 1021.55 1021.53 1021.59 1021.80 1021.83 1021.67 1021.73 1021.71 1021.59 1021.45 1021.28 1021.20 1021.23 1021.33 1021.33 1021.20 1021.06 1020.84 1020.63 1020.42 1020.05 1019.56 1019.06 1018.58 1018.17 1017.91
1022.36 1022.75 1022.83 1022.70 1022.39 1022.08 1021.84 1021.69 1021.70 1021.43 1021.22 1021.10 1021.24 1021.35 1021.17 1020.97 1020.94 1021.05 1021.22 1021.18 1021.19 1021.34 1021.21 1021.20 1021.30 1021.25 1021.18 1021.26 1021.39 1021.46 1021.51 1021.41 1021.23 1021.05 1020.86 1020.58 1020.20 1019.77 1019.33 1018.80 1018.27 1017.81 1017.62
1022.93 1023.12 1022.99 1022.64 1022.36 1022.12 1021.84 1021.62 1021.43 1020.95 1020.57 1020.88 1020.82 1020.77 1020.45 1020.42 1020.37 1020.47 1020.42 1020.80 1020.59 1020.90 1021.00 1020.69 1020.93 1021.03 1021.07 1021.34 1021.43 1021.53 1021.60 1021.43 1021.11 1020.88 1020.68 1020.30 1019.85 1019.31 1018.86 1018.40 1018.09 1017.79 1017.52
1023.11 1022.87 1022.75 1022.45 1022.19 1021.95 1021.68 1021.51 1021.31 1021.11 1020.94 1020.76 1020.42 1020.27 1020.47 1020.50 1020.61 1020.38 1020.51 1020.72 1020.12 1020.40 1020.85 1020.52 1020.60 1020.90 1021.07 1021.32 1021.37 1021.38 1021.31 1021.14 1020.90 1020.65 1020.26 1019.99 1019.50 1018.93 1018.65 1018.30 1017.93 1017.72 1017.50
1023.13 1022.95 1022.60 1022.31 1022.09 1021.83 1021.59 1021.64 1021.52 1021.26 1021.09 1020.96 1020.96 1021.35 1020.92 1020.97 1020.92 1020.88 1021.31 1020.49 1020.41 1020.22 1020.45 1020.37 1020.54 1020.93 1021.19 1021.28 1021.21 1021.09 1021.05 1020.92 1020.66 1020.36 1019.96 1019.53 1019.12 1018.79 1018.28 1017.83 1017.46 1017.15 1016.87
1023.10 1022.88 1022.59 1022.27 1021.78 1021.68 1021.74 1021.62 1021.53 1021.45 1021.24 1021.23 1021.04 1020.94 1021.04 1021.05 1021.24 1020.91 1020.63 1020.67 1020.42 1020.10 1020.26 1020.42 1020.73 1021.06 1021.18 1021.17 1020.96 1020.79 1020.70 1020.56 1020.31 1020.06 1019.69 1019.28 1018.75 1018.31 1017.79 1017.27 1016.90 1016.52 1016.24
1022.95 1022.73 1022.51 1022.37 1022.21 1022.08 1021.97 1021.86 1021.68 1021.45 1021.23 1021.24 1021.13 1020.95 1020.84 1020.69 1020.37 1020.94 1020.81 1021.13 1020.74 1020.36 1020.56 1020.84 1021.03 1021.24 1021.25 1021.07 1020.74 1020.50 1020.45 1020.39 1020.20 1019.83 1019.45 1018.94 1018.35 1017.84 1017.25 1016.89 1016.59 1016.18 1015.65
1022.75 1022.84 1022.73 1022.59 1022.44 1022.36 1022.10 1021.83 1021.48 1021.31 1021.35 1021.44 1021.43 1021.20 1020.87 1020.81 1020.73 1020.64 1020.46 1020.61 1020.26 1020.37 1020.83 1021.20 1021.32 1021.36 1021.24 1020.96 1020.72 1020.65 1020.69 1020.65 1020.16 1019.70 1019.13 1018.61 1018.05 1017.48 1016.98 1016.33 1016.12 1015.83 1015.39
1022.90 1022.79 1022.64 1022.72 1022.57 1022.21 1021.91 1021.67 1021.52 1021.64 1021.66 1021.46 1021.30 1021.20 1021.16 1020.93 1020.77 1020.87 1020.72 1020.42 1020.46 1021.06 1021.37 1021.47 1021.50 1021.42 1021.30 1021.20 1020.99 1020.94 1020.81 1020.54 1020.04 1019.54 1018.87 1018.25 1017.63 1017.13 1016.41 1015.99 1015.70 1015.33 1014.95
1022.81 1022.64 1022.70 1022.74 1022.36 1022.03 1021.82 1021.78 1021.85 1021.88 1021.66 1021.55 1021.42 1021.32 1021.06 1020.83 1020.83 1020.94 1020.91 1020.61 1021.03 1021.41 1021.69 1021.83 1021.83 1021.48 1021.52 1021.45 1021.32 1021.11 1020.78 1020.36 1020.02 1019.44 1018.71 1018.04 1017.33 1016.51 1016.03 1015.65 1014.90 1014.63 1014.40
1022.79 1022.72 1022.87 1022.54 1022.18 1022.25 1022.11 1022.20 1022.26 1022.02 1021.83 1021.69 1021.65 1021.47 1021.20 1020.83 1020.56 1020.69 1020.90 1021.15 1021.35 1021.54 1021.75 1021.88 1021.96 1022.05 1021.74 1021.65 1021.47 1021.12 1020.71 1020.27 1019.76 1019.22 1018.55 1017.79 1017.16 1016.68 1016.16 1015.62 1015.11 1014.53 1014.31
1023.24 1023.00 1022.77 1022.67 1022.50 1022.29 1022.31 1022.30 1022.12 1022.02 1021.84 1021.87 1021.89 1021.82 1021.71 1021.28 1021.00 1021.08 1021.20 1021.38 1021.55 1021.71 1021.87 1022.01 1022.16 1022.11 1022.00 1021.76 1021.34 1020.92 1020.47 1020.00 1019.47 1018.97 1018.38 1017.97 1017.56 1016.99 1016.49 1016.01 1015.58 1015.15 1014.82
1023.28 1023.09 1022.94 1022.75 1022.55 1022.46 1022.47 1022.28 1022.01 1021.90 1021.97 1022.03 1022.12 1022.15 1022.06 1021.90 1021.63 1021.42 1021.46 1021.53 1021.58 1021.67 1021.79 1022.01 1022.14 1022.16 1022.09 1021.80 1021.12 1020.64 1020.22 1019.68 1019.29 1018.98 1018.59 1018.27 1017.86 1017.33 1016.83 1016.45 1016.00 1015.55 1015.11
1023.32 1023.17 1022.99 1022.85 1022.75 1022.59 1022.47 1022.24 1022.19 1022.10 1022.10 1022.16 1022.23 1022.19 1022.16 1022.09 1021.91 1021.73 1021.57 1021.49 1021.42 1021.39 1021.36 1021.45 1021.60 1021.71 1021.69 1021.42 1020.81 1020.49 1020.16 1019.77 1019.48 1019.26 1019.06 1018.81 1018.42 1017.96 1017.48 1017.05 1016.55 1016.01 1015.47
Wind_Speed
13 16 15 14 13 11 13 11 14 10 10 6 4 3 2 2 2 4 4 4 6 7 6 4 4 4 4 3 4 4 5 6 5 5 7 4 6 6 5 5 5 6 8
15 15 13 12 10 9 9 10 10 9 7 4 3 4 3 3 4 4 7 7 7 7 6 6 5 6 4 5 5 4 4 2 4 4 5 7 5 4 6 4 5 6 7
14 13 12 9 9 9 8 8 8 7 6 7 4 5 5 4 5 5 3 4 7 6 7 7 6 6 4 3 4 4 7 3 4 7 4 5 4 9 4 6 5 7 6
12 12 10 8 7 6 7 7 5 5 5 6 5 5 2 2 2 1 3 6 9 10 10 8 6 5 4 5 2 4 4 4 3 2 5 1 4 4 9 3 4 6 7
10 10 9 8 6 5 4 4 7 5 3 4 5 4 2 1 2 4 7 7 7 7 8 9 9 7 4 3 4 3 3 2 2 1 1 2 4 1 3 9 3 4 6
9 8 7 7 5 3 4 4 5 5 7 6 6 6 6 4 5 5 4 3 3 4 6 8 6 5 5 5 4 4 4 3 3 3 2 1 3 5 3 5 3 3 4
8 7 9 7 6 4 3 3 6 4 6 7 7 7 7 7 6 4 3 4 3 3 5 4 5 3 4 4 4 3 5 4 3 3 3 2 4 4 4 5 6 4 3
5 5 7 6 6 6 6 5 4 7 6 6 7 6 6 4 4 3 1 1 2 3 4 5 4 5 4 5 5 4 4 5 4 5 5 4 4 4 5 4 3 7 2
6 7 7 8 8 7 6 6 5 5 6 6 6 6 5 4 3 1 4 5 5 4 5 6 5 5 3 2 4 3 5 4 5 5 5 4 4 5 6 6 6 4 5
7 7 7 6 5 4 3 4 4 7 7 6 5 3 3 5 6 6 6 6 5 5 5 3 2 3 4 5 5 4 5 5 4 3 4 4 2 5 5 5 6 6 6
8 6 5 5 6 5 5 5 5 7 5 5 4 6 6 6 5 4 3 2 3 5 6 4 4 4 4 5 5 6 6 7 6 5 5 6 6 6 6 5 6 6 6
6 5 6 8 7 6 6 5 3 5 3 3 4 3 5 4 3 2 2 2 4 5 5 5 4 5 6 6 6 6 5 5 5 4 5 7 8 10 7 4 5 4 4
10 10 9 7 6 6 6 3 3 3 3 2 1 3 3 5 5 4 3 2 3 5 4 4 5 5 5 5 5 4 5 4 4 5 5 7 9 10 8 9 8 3 3
9 8 8 7 7 6 5 4 3 2 4 3 3 5 6 7 6 5 4 4 3 4 1 2 4 5 5 4 5 5 6 6 6 5 6 7 8 9 9 9 7 6 4
10 7 6 6 7 6 5 5 5 7 4 3 5 6 8 6 6 6 6 7 4 2 1 2 4 5 4 3 4 4 4 5 6 5 8 9 13 20 15 7 6 5 4
4 5 6 7 7 5 5 6 7 7 4 5 6 7 3 5 8 6 2 6 2 2 1 2 3 3 3 5 4 2 3 5 5 5 8 8 14 11 17 13 11 7 4
6 7 7 8 6 6 5 6 5 6 9 10 9 7 6 5 5 4 7 6 3 1 2 4 3 3 3 4 2 5 3 5 5 6 6 9 9 12 9 12 14 11 12
6 7 7 6 7 4 6 6 7 6 7 4 7 7 6 4 7 8 7 5 2 1 3 3 5 4 4 5 10 3 3 5 6 6 7 9 11 10 12 11 9 8 8
7 7 6 5 6 7 7 6 6 6 6 7 6 5 6 7 5 3 4 3 6 3 4 4 6 6 5 9 7 8 4 4 6 7 8 11 11 16 20 9 7 7 8
6 6 7 5 7 7 5 5 6 6 5 5 5 5 4 3 2 2 2 4 3 4 4 5 5 6 6 9 13 9 3 5 6 7 10 15 16 19 19 9 5 7 9
6 6 6 5 5 6 7 6 5 6 4 5 5 5 6 5 3 4 5 4 4 5 3 4 3 4 6 7 15 13 5 6 6 7 8 8 19 23 21 14 6 8 9
6 6 6 6 7 8 7 7 7 5 6 6 6 6 5 4 2 1 5 5 5 5 3 2 3 3 4 12 11 17 17 16 6 8 9 9 22 18 14 11 15 15 8
5 5 6 7 7 6 6 5 4 5 5 5 6 6 7 7 3 1 3 2 3 3 1 2 2 2 3 4 13 15 17 15 9 7 14 21 14 16 9 14 19 7 6
6 6 7 6 6 6 5 4 4 4 4 5 5 6 6 7 5 3 3 4 2 2 2 2 2 2 2 3 4 5 5 11 9 9 9 7 9 8 8 6 8 6 6
5 6 6 7 6 6 6 6 6 3 3 4 4 4 4 5 4 3 2 2 1 3 1 2 1 1 3 3 11 11 8 7 6 7 4 5 6 6 6 6 6 7 5
6 8 8 9 5 4 6 7 6 4 3 3 3 2 2 2 3 3 3 5 1 4 4 4 4 2 5 11 16 14 17 17 11 4 4 4 5 6 7 7 7 6 7
Wind_Direction
73 62 52 49 56 54 68 62 57 35 42 28 48 42 44 345 34 71 80 47 45 29 25 18 348 331 343 316 319 317 340 329 322 317 315 300 294 293 285 279 276 264 259
76 65 51 44 38 51 61 60 61 53 41 24 17 46 9 344 34 25 34 46 32 14 2 357 347 357 350 340 346 337 317 298 4 325 299 306 307 324 322 338 3 4 6
96 85 71 55 46 47 53 64 74 73 56 47 30 16 18 26 17 13 30 15 28 31 27 18 18 3 6 343 322 16 49 7 5 33 24 339 330 335 292 338 29 33 32
96 97 88 75 70 54 52 46 88 113 94 76 64 67 86 29 310 329 2 23 21 21 16 13 3 0 349 334 76 84 102 107 43 3 18 139 280 303 308 345 2 6 19
107 107 112 115 110 102 87 32 34 58 75 103 119 119 121 215 344 21 43 26 14 12 6 0 348 325 339 54 92 66 73 89 78 36 4 352 324 42 307 306 331 345 342
114 135 127 135 157 167 129 90 70 34 49 35 24 31 32 28 52 50 48 20 2 359 0 336 346 29 34 49 35 28 46 27 59 23 332 195 302 305 308 304 311 287 277
105 120 139 156 181 146 83 71 65 46 59 85 69 59 55 61 72 56 31 8 5 350 347 17 18 20 26 34 61 44 1 356 4 266 262 246 231 205 223 254 282 283 298
127 142 130 117 107 103 95 84 54 30 77 70 63 80 64 79 72 54 25 17 4 324 346 346 63 67 55 40 22 24 293 303 300 286 249 259 248 237 229 217 230 293 281
131 106 79 87 83 73 75 80 75 67 76 78 69 57 60 101 140 187 34 37 21 3 24 51 45 12 9 360 47 331 305 293 276 287 286 283 287 262 254 280 307 271 285
72 69 78 83 80 77 75 57 57 81 87 80 71 65 16 29 41 53 50 41 2 345 343 22 59 357 343 330 328 298 285 291 295 287 303 287 263 292 295 296 295 289 279
82 84 70 58 54 33 38 29 71 86 66 52 42 39 66 72 66 64 47 13 343 327 314 280 230 243 256 266 274 279 279 274 274 304 307 303 293 289 284 256 246 245 252
91 69 53 47 31 7 13 29 62 84 63 54 63 48 135 133 131 176 208 35 293 292 290 321 339 284 279 273 265 266 310 34 30 351 350 342 336 321 310 290 280 268 271
44 46 37 21 5 350 348 27 27 69 8 65 156 274 215 193 194 200 204 225 264 280 312 348 339 331 321 315 329 35 37 16 353 345 338 328 320 308 300 295 291 267 292
54 34 17 356 335 317 333 345 31 331 284 243 266 266 259 216 200 201 202 224 239 265 323 348 338 333 322 45 28 23 8 356 346 332 317 300 293 294 300 297 276 266 247
35 18 348 327 313 317 342 331 288 280 271 268 289 261 257 212 185 196 205 233 236 242 278 27 347 329 10 56 51 34 6 329 318 312 310 305 302 310 309 331 332 300 275
349 339 315 303 307 337 332 324 315 313 311 271 267 293 86 206 243 248 256 277 220 164 291 350 296 2 98 117 89 81 303 295 296 308 311 309 313 317 332 323 322 302 299
345 331 323 307 313 308 316 343 344 348 340 333 354 14 9 345 336 333 282 276 220 156 275 292 41 82 122 149 247 265 282 293 292 291 300 311 312 310 298 297 297 288 277
316 307 299 295 290 315 10 9 357 339 345 48 5 13 339 316 306 272 268 309 268 315 283 29 71 46 1 292 325 336 281 290 288 283 287 293 297 293 299 299 299 286 269
279 272 296 326 7 17 1 4 346 329 350 12 6 359 329 339 261 18 39 318 293 3 61 60 42 20 331 329 339 319 312 301 304 306 306 301 307 301 312 305 304 308 296
326 5 8 5 12 345 342 333 325 1 7 28 359 352 356 16 355 317 256 278 277 107 76 65 44 341 324 333 1 12 354 337 320 307 302 306 310 316 327 296 261 285 289
13 21 13 13 338 326 324 324 352 357 17 2 350 355 6 327 318 327 296 303 24 88 92 74 10 351 7 4 20 13 357 327 319 318 316 311 317 318 310 312 288 276 283
6 354 10 339 312 315 318 326 29 12 3 360 4 348 334 336 21 2 332 350 94 90 67 60 351 12 28 8 9 352 345 339 329 319 310 309 317 330 345 327 300 288 291
340 354 344 310 324 352 7 46 354 360 353 11 354 341 338 325 323 237 302 62 90 93 10 29 29 342 354 7 351 338 342 335 328 316 321 328 353 347 341 350 357 340 356
7 335 331 335 336 346 27 26 355 335 28 15 4 354 359 356 23 40 50 60 55 40 27 19 359 332 350 334 310 324 308 319 323 329 325 344 352 341 334 2 3 359 2
334 344 339 333 329 6 6 347 323 359 21 23 2 1 4 350 356 24 48 107 146 142 190 231 195 64 331 293 336 347 341 331 339 337 336 358 352 348 1 3 357 350 344
344 341 336 332 337 5 344 347 353 3 9 341 335 310 339 331 355 338 11 40 150 302 282 238 164 279 281 318 332 352 352 359 10 7 353 350 348 355 357 358 350 344 342